Tracking 29777 objects as of 5-Oct-2024
HD Live streaming from Space Station
objects crossing your sky now

SL-12 R/B(2)

Track SL-12 R/B(2) now!


NORAD ID: 33111
Int'l Code: 2008-033D
Perigee: 35,663.7 km
Apogee: 35,905.5 km
Inclination: 9.4 °
Period: 1,435.6 minutes
Semi major axis: 42155 km
RCS: 2.244 m2 (large)
Launch date: June 27, 2008
Source: Commonwealth of Independent States (former USSR) (CIS)
Launch site: TYURATAM MISSILE AND SPACE COMPLEX (TTMTR)

Note: This is a ROCKET BODY
Your satellite tracking list
Your tracking list is empty




NASA's NSSDC Master Catalog

Two Line Element Set (TLE):
1 33111U 08033D   24278.86619262 -.00000161  00000-0  00000-0 0  9995
2 33111   9.3671  45.9073 0028677 324.4444  37.5543  1.00304452 59594
Source of the keplerian elements: AFSPC